Milwaukee, WI

6:54 PM CST on December 07, 2016 (GMT -0600)
Gen Mitchell International

Weather History for KMKE - February, 2014

Change the Weather History Date:

Friday, February 14, 2014

  Actual Average Record
Temperature  
Mean Temperature 19 °F 26 °F  
Max Temperature 24 °F 32 °F 55 °F (1954)
Min Temperature 13 °F 19 °F -12 °F (1875)
Degree Days  
Heating Degree Days 46 39  
Month to date heating degree days 739 572  
Since 1 July heating degree days 5042 4457  
Cooling Degree Days 0 0  
Month to date cooling degree days 0 0  
Year to date cooling degree days 0 0  
Moisture  
Dew Point 9 °F    
Average Humidity 68    
Maximum Humidity 80    
Minimum Humidity 55    
Precipitation  
Precipitation 0.00 in 0.06 in 0.98 in (1909)
Month to date precipitation 0.39 0.77  
Year to date precipitation 1.50 2.53  
Snow  
Snow 0.00 in 0.30 in 10.50 in (1909)
Month to date snowfall 7.3 5.0  
Since 1 July snowfall 48.2 33.0  
Snow Depth 10.00 in    
Sea Level Pressure  
Sea Level Pressure 29.76 in    
Wind  
Wind Speed 12 mph (NW)    
Max Wind Speed 22 mph    
Max Gust Speed 32 mph    
Visibility 10 miles    
Events      
T = Trace of Precipitation, MM = Missing Value Source: NWS Daily Summary

Daily Weather History Graph

Daily Weather History Graph

Search for Another Location

Airport or City:

Trip Planner

Search our weather history database for the weather conditions in past years. The results will help you decide how hot, cold, wet, or windy it might be!

Date:

Astronomy

Feb. 14, 2014 Rise Set
Actual Time 6:50 AM CST 5:21 PM CST
Civil Twilight 6:21 AM CST 5:50 PM CST
Nautical Twilight 5:48 AM CST 6:24 PM CST
Astronomical Twilight 5:15 AM CST 6:57 PM CST
Moon 5:26 PM CST (2/14) 6:16 AM CST (2/14)
Length of Visible Light 11h 29m
Length of Day
10h 31m
Full, 100% of the Moon is Illuminated
Feb 14
Full
Feb 14
Full
Feb 22
Last Quarter
Mar 1
New
Mar 8
First Quarter

Hourly Weather History & Observations

Time (CST) Temp. Windchill Dew Point Humidity Pressure Visibility Wind Dir Wind Speed Gust Speed Precip Events Conditions
12:06 AM 21.9 °F 7.8 °F 14.0 °F 72% 29.54 in 8.0 mi WNW 17.3 mph 26.5 mph N/A   Overcast
12:52 AM 21.9 °F 7.3 °F 14.0 °F 72% 29.58 in 7.0 mi WNW 18.4 mph 27.6 mph N/A   Partly Cloudy
1:24 AM 21.9 °F 6.5 °F 12.9 °F 68% 29.56 in 9.0 mi WNW 20.7 mph 32.2 mph N/A   Mostly Cloudy
1:52 AM 21.0 °F 6.2 °F 12.0 °F 68% 29.59 in 9.0 mi WNW 18.4 mph 25.3 mph N/A   Mostly Cloudy
2:11 AM 21.0 °F 6.2 °F 12.0 °F 68% 29.57 in 10.0 mi WNW 18.4 mph 27.6 mph N/A   Scattered Clouds
2:52 AM 19.0 °F 6.1 °F 10.9 °F 71% 29.61 in 10.0 mi WNW 12.7 mph 18.4 mph N/A   Clear
3:52 AM 17.1 °F 4.3 °F 10.0 °F 74% 29.64 in 10.0 mi West 11.5 mph - N/A   Clear
4:52 AM 16.0 °F 3.6 °F 9.0 °F 74% 29.67 in 10.0 mi West 10.4 mph - N/A   Clear
5:52 AM 14.0 °F 1.2 °F 8.1 °F 77% 29.66 in 10.0 mi WNW 10.4 mph - N/A   Clear
6:52 AM 16.0 °F 2.9 °F 8.1 °F 71% 29.68 in 8.0 mi West 11.5 mph 19.6 mph N/A   Scattered Clouds
7:52 AM 17.1 °F 3.0 °F 9.0 °F 71% 29.70 in 8.0 mi West 13.8 mph - N/A   Mostly Cloudy
8:52 AM 15.1 °F 0.5 °F 7.0 °F 70% 29.73 in 9.0 mi WNW 13.8 mph - N/A   Partly Cloudy
9:52 AM 17.1 °F 3.0 °F 7.0 °F 65% 29.74 in 10.0 mi WNW 13.8 mph - N/A   Mostly Cloudy
10:52 AM 18.0 °F 3.6 °F 8.1 °F 65% 29.75 in 10.0 mi NW 15.0 mph - N/A   Scattered Clouds
11:52 AM 19.0 °F 6.8 °F 8.1 °F 62% 29.76 in 10.0 mi WNW 11.5 mph - N/A   Mostly Cloudy
12:52 PM 21.0 °F 9.3 °F 9.0 °F 60% 29.75 in 10.0 mi NW 11.5 mph - N/A   Mostly Cloudy
1:52 PM 21.9 °F 11.7 °F 9.0 °F 58% 29.77 in 10.0 mi NW 9.2 mph - N/A   Scattered Clouds
2:52 PM 23.0 °F 12.4 °F 10.0 °F 58% 29.78 in 10.0 mi NW 10.4 mph - N/A   Partly Cloudy
3:52 PM 24.1 °F 12.0 °F 10.0 °F 55% 29.81 in 10.0 mi NNW 13.8 mph - N/A   Scattered Clouds
4:52 PM 23.0 °F 12.4 °F 10.0 °F 58% 29.83 in 10.0 mi NW 10.4 mph - N/A   Mostly Cloudy
5:52 PM 21.9 °F 12.5 °F 10.0 °F 60% 29.86 in 10.0 mi NNW 8.1 mph - N/A   Mostly Cloudy
6:40 PM 21.0 °F 9.9 °F 9.0 °F 60% 29.85 in 10.0 mi NW 10.4 mph - N/A   Scattered Clouds
6:52 PM 19.9 °F 9.3 °F 9.0 °F 62% 29.89 in 10.0 mi NW 9.2 mph - N/A   Partly Cloudy
7:52 PM 19.0 °F 9.0 °F 8.1 °F 62% 29.91 in 10.0 mi NW 8.1 mph - N/A   Partly Cloudy
8:52 PM 18.0 °F 5.4 °F 7.0 °F 62% 29.93 in 10.0 mi NW 11.5 mph - N/A   Scattered Clouds
9:52 PM 17.1 °F 3.6 °F 6.1 °F 62% 29.95 in 10.0 mi NW 12.7 mph - N/A   Partly Cloudy
10:52 PM 15.1 °F 4.2 °F 5.0 °F 64% 29.96 in 10.0 mi NW 8.1 mph - N/A   Clear
11:52 PM 14.0 °F 1.2 °F 3.9 °F 64% 29.97 in 10.0 mi NW 10.4 mph - N/A   Clear